EW7349 Weather Reports


Display with metric or nautical units.
time (UTC)temp
F
wind
direction
speed
MPH
gust
MPH
rain 1hr
in
rain 24hr
in
rain mn
in
humidity
%
barometer
mb
20260906150427 74 5 1.0 7.0 0.00 0.61 0.00 79 1015.4
20260906145923 73 43 1.0 7.0 0.00 0.61 0.00 82 1015.4
20260906145416 72 300 2.0 4.0 0.00 0.61 0.00 85 1015.4
20260906144910 71 54 2.0 5.0 0.00 0.61 0.00 84 1015.4
20260906144409 71 133 1.0 5.0 0.00 0.61 0.00 84 1015.4
20260906143906 71 54 1.0 4.0 0.00 0.61 0.00 85 1015.4
20260906143407 71 88 1.0 4.0 0.00 0.61 0.00 84 1015.4
20260906142907 70 343 1.0 3.0 0.00 0.61 0.00 87 1015.4
20260906142844 69 289 1.0 3.0 0.00 0.61 0.00 90 1015.4
20260906142135 68 44 2.0 6.0 0.00 0.61 0.00 94 1015.3
20260906141407 68 73 2.0 6.0 0.00 0.61 0.00 94 1015.3
20260906140906 68 98 1.0 4.0 0.00 0.61 0.00 95 1015.3
20260906140403 67 78 1.0 4.0 0.00 0.61 0.00 95 1015.3
20260906135903 67 55 1.0 4.0 0.00 0.61 0.00 95 1015.3
20260906135401 67 90 1.0 3.0 0.00 0.61 0.00 96 1015.2
20260906134900 66 66 1.0 3.0 0.00 0.61 0.00 96 1015.2
20260906134359 66 322 1.0 4.0 0.00 0.61 0.00 96 1015.2
20260906133859 66 82 1.0 4.0 0.00 0.61 0.00 96 1015.2
20260906133401 66 103 1.0 4.0 0.00 0.61 0.00 96 1015.3
20260906132900 65 146 0.0 4.0 0.00 0.61 0.00 96 1015.2
20260906132401 65 22 0.0 1.0 0.00 0.61 0.00 96 1015.2
20260906131855 65 22 1.0 3.0 0.00 0.61 0.00 96 1015.1
20260906131608 65 70 0.0 3.0 0.00 0.61 0.00 96 1015.1
20260906130841 65 108 1.0 4.0 0.00 0.61 0.00 96 1015.0
20260906130336 65 110 1.0 4.0 0.00 0.61 0.00 96 1015.0
20260906125829 65 56 0.0 2.0 0.00 0.61 0.00 96 1015.0
20260906125324 64 61 1.0 3.0 0.00 0.61 0.00 96 1015.0
20260906124818 64 92 1.0 3.0 0.00 0.61 0.00 96 1014.9
20260906124312 64 83 0.0 5.0 0.00 0.61 0.00 96 1015.0
20260906123805 64 80 1.0 5.0 0.00 0.61 0.00 96 1015.0
20260906123300 64 86 1.0 3.0 0.00 0.61 0.00 96 1015.0
20260906122753 64 100 0.0 3.0 0.00 0.61 0.00 96 1015.0
20260906122731 64 71 0.0 2.0 0.00 0.61 0.00 96 1015.0
20260906121741 64 35 0.0 3.0 0.00 0.61 0.00 96 1014.9
20260906121729 63 344 0.0 2.0 0.00 0.61 0.00 96 1014.8
20260906120729 63 42 0.0 2.0 0.00 0.61 0.00 96 1014.7
20260906120223 63 98 0.0 0.0 0.00 0.61 0.00 96 1014.7
20260906115718 63 98 0.0 1.0 0.00 0.61 0.00 96 1014.7
20260906115212 63 98 0.0 1.0 0.00 0.61 0.00 96 1014.7
20260906114705 63 58 0.0 0.0 0.00 0.61 0.00 95 1014.5
20260906114200 63 58 0.0 0.0 0.00 0.61 0.00 95 1014.4
20260906113654 63 58 0.0 0.0 0.00 0.61 0.00 95 1014.5
20260906113147 63 58 0.0 0.0 0.00 0.61 0.00 95 1014.5
20260906112642 63 58 0.0 0.0 0.00 0.61 0.00 95 1014.4
20260906112135 63 58 0.0 0.0 0.00 0.61 0.00 95 1014.4
20260906111629 63 58 0.0 0.0 0.00 0.61 0.00 95 1014.2
20260906111123 63 58 0.0 0.0 0.00 0.61 0.00 95 1014.1
20260906110617 63 58 0.0 0.0 0.00 0.61 0.00 95 1014.1
20260906110335 63 58 0.0 0.0 0.00 0.61 0.00 95 1014.0
20260906105605 64 58 0.0 0.0 0.00 0.61 0.00 95 1014.1
20260906105100 64 58 0.0 0.0 0.00 0.61 0.00 95 1014.0
20260906104553 64 58 0.0 0.0 0.00 0.61 0.00 95 1014.0
20260906104047 64 58 0.0 0.0 0.00 0.61 0.00 95 1013.8
20260906103541 64 58 0.0 0.0 0.00 0.61 0.00 95 1013.8
20260906103035 64 58 0.0 0.0 0.00 0.61 0.00 95 1013.7
20260906102529 64 58 0.0 0.0 0.00 0.61 0.00 95 1013.7
20260906102023 64 58 0.0 0.0 0.00 0.61 0.00 95 1013.7
20260906101518 64 58 0.0 0.0 0.00 0.61 0.00 95 1013.7
20260906101011 64 58 0.0 0.0 0.00 0.61 0.00 95 1013.6
20260906100702 64 58 0.0 0.0 0.00 0.61 0.00 95 1013.4
20260906100554 64 58 0.0 0.0 0.00 0.61 0.00 95 1013.5
20260906095452 64 58 0.0 0.0 0.00 0.61 0.00 95 1013.4
20260906094947 64 58 0.0 0.0 0.00 0.61 0.00 95 1013.4
20260906094441 65 58 0.0 0.0 0.00 0.61 0.00 95 1013.5
20260906093935 65 58 0.0 0.0 0.00 0.61 0.00 95 1013.4
20260906093429 65 58 0.0 0.0 0.00 0.61 0.00 95 1013.2
20260906092923 65 58 0.0 0.0 0.00 0.61 0.00 95 1013.1
20260906092417 65 58 0.0 0.0 0.00 0.61 0.00 95 1013.2
20260906091911 65 58 0.0 0.0 0.00 0.61 0.00 95 1013.2
20260906091409 65 58 0.0 0.0 0.00 0.61 0.00 95 1013.2
20260906090859 65 58 0.0 0.0 0.00 0.61 0.00 95 1013.1
20260906090354 65 58 0.0 0.0 0.00 0.61 0.00 95 1012.8
20260906085847 65 58 0.0 0.0 0.00 0.61 0.00 95 1012.8
20260906085341 66 58 0.0 0.0 0.00 0.61 0.00 95 1012.7
20260906084836 66 58 0.0 0.0 0.00 0.61 0.00 95 1012.7
20260906084329 66 58 0.0 0.0 0.00 0.61 0.00 95 1012.8
20260906083823 66 58 0.0 0.0 0.00 0.61 0.00 95 1012.7
20260906083318 66 58 0.0 0.0 0.00 0.61 0.00 95 1012.7
20260906082811 66 58 0.0 0.0 0.00 0.61 0.00 95 1012.6
20260906082306 66 58 0.0 0.0 0.00 0.61 0.00 95 1012.5
20260906081759 66 58 0.0 0.0 0.00 0.61 0.00 95 1012.4
20260906081525 66 58 0.0 0.0 0.00 0.61 0.00 95 1012.4
20260906080752 67 58 0.0 0.0 0.00 0.61 0.00 95 1012.4
20260906080252 67 58 0.0 0.0 0.00 0.61 0.00 95 1012.4
20260906075751 67 58 0.0 1.0 0.00 0.61 0.00 95 1012.4
20260906075513 67 58 0.0 1.0 0.00 0.61 0.00 95 1012.4
20260906074747 67 58 0.0 1.0 0.00 0.61 0.00 95 1012.4
20260906074245 67 58 0.0 1.0 0.00 0.61 0.00 95 1012.3
20260906073743 67 58 0.0 1.0 0.00 0.61 0.00 95 1012.3
20260906073242 67 58 0.0 0.0 0.00 0.61 0.00 95 1012.4
20260906072741 67 58 0.0 0.0 0.00 0.61 0.00 95 1012.3
20260906072503 67 58 0.0 1.0 0.00 0.61 0.00 95 1012.2
20260906071741 67 58 0.0 1.0 0.00 0.61 0.00 95 1012.2
20260906071503 67 58 0.0 0.0 0.00 0.61 0.00 95 1012.3
20260906070736 67 58 0.0 0.0 0.00 0.61 0.00 95 1012.3
20260906070234 67 58 0.0 0.0 0.00 0.61 0.00 95 1012.4
20260906065733 67 58 0.0 0.0 0.00 0.61 0.00 95 1012.4
20260906065235 67 58 0.0 0.0 0.00 0.61 0.00 95 1012.4
20260906064730 67 58 0.0 0.0 0.00 0.61 0.00 95 1012.4
20260906064228 67 58 0.0 0.0 0.00 0.62 0.00 95 1012.5
20260906063729 67 58 0.0 0.0 0.00 0.62 0.00 95 1012.4
20260906063229 68 58 0.0 0.0 0.00 0.62 0.00 95 1012.4
20260906062730 68 58 0.0 0.0 0.00 0.62 0.00 95 1012.5
20260906062228 68 58 0.0 0.0 0.00 0.62 0.00 95 1012.5
20260906061729 68 58 0.0 0.0 0.00 0.62 0.00 95 1012.4
20260906061228 68 58 0.0 0.0 0.00 0.62 0.00 95 1012.4
20260906060729 68 58 0.0 0.0 0.00 0.62 0.00 95 1012.4
20260906060226 68 58 0.0 0.0 0.00 0.62 0.00 95 1012.3
20260906055724 68 58 0.0 0.0 0.00 0.62 0.00 95 1012.4
20260906055225 68 58 0.0 0.0 0.00 0.62 0.00 95 1012.3
20260906054724 69 58 0.0 0.0 0.00 0.62 0.00 95 1012.4
20260906054226 69 58 0.0 0.0 0.00 0.62 0.00 95 1012.4
20260906053947 69 58 0.0 0.0 0.00 0.62 0.00 95 1012.4
20260906053226 69 58 0.0 0.0 0.00 0.62 0.00 95 1012.4
20260906052725 69 58 0.0 0.0 0.00 0.62 0.00 95 1012.4
20260906052450 69 58 0.0 0.0 0.00 0.62 0.00 95 1012.5
20260906051724 69 58 0.0 0.0 0.00 0.62 0.00 95 1012.5
20260906051226 69 58 0.0 0.0 0.00 0.62 0.00 95 1012.6
20260906050724 69 58 0.0 0.0 0.00 0.62 0.00 95 1012.6
20260906050225 69 58 0.0 0.0 0.00 0.62 0.00 95 1012.6
20260906045726 69 58 0.0 0.0 0.00 0.62 0.00 95 1012.6
20260906045223 69 58 0.0 0.0 0.00 0.62 0.00 94 1012.5
20260906044720 69 58 0.0 0.0 0.00 0.62 0.00 94 1012.5
20260906044219 69 58 0.0 0.0 0.00 0.62 0.00 94 1012.5
20260906043718 69 58 0.0 0.0 0.00 0.62 0.00 95 1012.5
20260906043217 70 58 0.0 0.0 0.00 0.62 0.00 95 1012.5
20260906042713 70 58 0.0 0.0 0.00 0.62 0.00 95 1012.7
20260906042213 70 58 0.0 0.0 0.00 0.62 0.00 95 1012.9
20260906041713 70 58 0.0 0.0 0.00 0.62 0.00 95 1012.8
20260906041211 70 58 0.0 0.0 0.00 0.62 0.00 94 1012.9
20260906040933 70 58 0.0 0.0 0.00 0.62 0.00 94 1012.9
20260906040209 70 58 0.0 0.0 0.00 0.62 0.00 94 1012.9
20260906035708 70 58 0.0 0.0 0.00 0.62 0.62 94 1012.8
20260906035205 70 58 0.0 0.0 0.00 0.62 0.62 94 1012.9
20260906034703 70 58 0.0 0.0 0.00 0.62 0.62 94 1013.0
20260906034207 70 58 0.0 0.0 0.00 0.62 0.62 94 1013.0
20260906033703 70 58 0.0 0.0 0.00 0.62 0.62 94 1012.9
20260906033203 70 58 0.0 0.0 0.00 0.62 0.62 94 1012.7
20260906032703 70 58 0.0 0.0 0.00 0.62 0.62 94 1012.6
20260906032205 70 58 0.0 0.0 0.01 0.62 0.62 94 1012.8
20260906031931 71 58 0.0 0.0 0.01 0.62 0.62 94 1012.8
20260906031204 71 58 0.0 0.0 0.01 0.62 0.62 94 1012.8
20260906030703 71 58 0.0 0.0 0.01 0.62 0.62 94 1012.8
20260906030202 71 58 0.0 0.0 0.01 0.62 0.62 94 1012.6
20260906025703 71 58 0.0 0.0 0.02 0.62 0.62 94 1012.6
20260906025203 71 58 0.0 0.0 0.02 0.62 0.62 94 1012.5
20260906024703 71 58 0.0 0.0 0.02 0.62 0.62 94 1012.6
20260906024201 71 58 0.0 0.0 0.03 0.62 0.62 94 1012.5
20260906023700 71 58 0.0 0.0 0.03 0.62 0.62 94 1012.5
20260906023156 71 58 0.0 0.0 0.04 0.62 0.62 94 1012.5
20260906022655 71 58 0.0 0.0 0.04 0.62 0.62 94 1012.4
20260906022155 71 58 0.0 0.0 0.04 0.61 0.61 94 1012.4
20260906021920 71 58 0.0 0.0 0.05 0.61 0.61 94 1012.5
20260906021150 72 58 0.0 0.0 0.05 0.61 0.61 94 1012.6
20260906020907 72 58 0.0 0.0 0.06 0.61 0.61 94 1012.6
20260906020149 72 58 0.0 0.0 0.07 0.61 0.61 94 1012.6
20260906015642 72 58 0.0 0.0 0.06 0.60 0.60 94 1012.4
20260906015405 72 58 0.0 0.0 0.07 0.60 0.60 94 1012.4
20260906014631 72 58 0.0 0.0 0.08 0.60 0.60 94 1012.4
20260906014126 72 58 0.0 0.0 0.08 0.59 0.59 94 1012.3
20260906013619 73 58 0.0 0.0 0.09 0.59 0.59 94 1012.3
20260906013113 73 58 0.0 1.0 0.09 0.58 0.58 94 1012.2
20260906012612 73 58 0.0 2.0 0.09 0.57 0.58 94 1012.2
20260906012315 73 58 0.0 2.0 0.10 0.57 0.57 94 1012.2
20260906011551 73 42 0.0 2.0 0.10 0.56 0.56 94 1012.1
20260906011045 73 62 0.0 2.0 0.10 0.55 0.56 94 1012.0
20260906010540 73 355 0.0 1.0 0.11 0.55 0.55 94 1011.8
20260906010235 73 355 0.0 1.0 0.11 0.53 0.53 94 1011.6
20260906010120 73 355 0.0 1.0 0.11 0.54 0.54 94 1011.7
20260906005021 73 355 0.0 1.0 0.12 0.53 0.53 94 1011.5
20260906004515 73 55 0.0 1.0 0.12 0.52 0.52 93 1011.5
20260906004010 73 55 0.0 1.0 0.13 0.51 0.51 93 1011.5
20260906003504 73 55 0.0 1.0 0.12 0.50 0.50 93 1011.4
20260906002957 73 69 0.0 2.0 0.13 0.49 0.49 93 1011.5
20260906002759 73 69 0.0 2.0 0.13 0.48 0.48 93 1011.5
20260906002724 74 157 0.0 0.0 0.13 0.47 0.47 93 1011.4
20260906001440 74 157 0.0 0.0 0.13 0.46 0.46 93 1011.4
20260906000933 74 157 0.0 0.0 0.13 0.45 0.45 93 1011.3
20260906000433 74 157 0.0 0.0 0.14 0.44 0.44 93 1011.3
20260905235922 74 157 0.0 0.0 0.14 0.43 0.43 93 1011.3
20260905235634 74 157 0.0 0.0 0.13 0.41 0.42 93 1011.3
20260905234908 74 157 0.0 0.0 0.13 0.40 0.41 93 1011.3
20260905234404 74 157 0.0 0.0 0.15 0.40 0.40 93 1011.3
20260905233858 74 157 0.0 0.0 0.14 0.38 0.38 93 1011.3
20260905233351 74 157 0.0 0.0 0.14 0.37 0.37 93 1011.3
20260905232845 74 157 0.0 0.0 0.15 0.36 0.36 93 1011.3
20260905232340 74 157 0.0 0.0 0.15 0.35 0.35 93 1011.3
20260905231834 74 157 0.0 0.0 0.16 0.34 0.34 92 1011.3
20260905231327 75 157 0.0 0.0 0.15 0.32 0.33 92 1011.2
20260905230821 75 157 0.0 1.0 0.16 0.31 0.31 92 1011.3
20260905230316 75 157 0.0 1.0 0.16 0.30 0.30 92 1011.3
20260905225809 75 157 0.0 0.0 0.17 0.29 0.29 91 1011.1
20260905225307 75 157 0.0 1.0 0.16 0.27 0.28 91 1011.1
20260905224753 75 157 0.0 1.0 0.16 0.26 0.26 91 1011.2
20260905224507 75 157 0.0 0.0 0.15 0.25 0.25 90 1011.2
20260905223741 75 157 0.0 0.0 0.14 0.24 0.24 90 1011.3
20260905223235 75 157 0.0 0.0 0.12 0.22 0.22 89 1011.2
20260905222729 75 157 0.0 0.0 0.11 0.21 0.21 88 1011.2
20260905222223 76 157 0.0 0.0 0.10 0.20 0.20 88 1011.2
20260905221718 76 157 0.0 0.0 0.08 0.18 0.18 87 1011.2
20260905221213 76 157 0.0 1.0 0.06 0.16 0.17 86 1011.0
20260905220706 76 157 0.0 1.0 0.05 0.15 0.15 86 1011.1
20260905220159 77 157 0.0 0.0 0.03 0.13 0.14 85 1011.3
20260905215653 78 215 1.0 4.0 0.02 0.12 0.12 84 1011.2
20260905215147 78 126 1.0 4.0 0.01 0.11 0.11 85 1011.3
20260905214642 78 159 0.0 2.0 0.00 0.10 0.10 84 1010.9
20260905214355 78 259 0.0 2.0 0.00 0.10 0.10 84 1010.9
20260905214116 79 289 1.0 7.0 0.00 0.10 0.10 84 1010.9
20260905213122 79 263 0.0 7.0 0.00 0.10 0.10 84 1010.8
20260905212618 79 64 0.0 0.0 0.00 0.10 0.10 84 1010.6
20260905212111 78 64 0.0 0.0 0.00 0.10 0.10 84 1010.5
20260905211605 78 64 0.0 0.0 0.00 0.10 0.10 84 1010.5
20260905211058 78 64 0.0 0.0 0.00 0.10 0.10 86 1010.5
20260905210553 78 64 0.0 0.0 0.00 0.10 0.10 85 1010.4
20260905210048 79 64 0.0 0.0 0.00 0.10 0.10 83 1010.4
20260905205541 80 64 0.0 0.0 0.00 0.10 0.10 83 1010.4
20260905205035 80 64 0.0 0.0 0.00 0.11 0.10 81 1010.4
20260905204529 79 64 0.0 0.0 0.00 0.13 0.10 82 1010.4
20260905204023 79 64 0.0 0.0 0.00 0.16 0.10 82 1010.4
20260905203745 79 64 0.0 0.0 0.00 0.19 0.10 84 1010.5
20260905203453 79 64 0.0 0.0 0.00 0.23 0.10 83 1010.5
20260905202947 79 64 0.0 0.0 0.00 0.29 0.10 83 1010.5
20260905201959 79 64 0.0 0.0 0.00 0.35 0.10 82 1010.5
20260905201459 80 64 0.0 0.0 0.00 0.36 0.10 82 1010.5
20260905200959 80 64 0.0 1.0 0.00 0.36 0.10 76 1010.4
20260905200459 80 64 0.0 1.0 0.00 0.36 0.10 75 1010.5
20260905200450 80 64 0.0 2.0 0.00 0.36 0.10 77 1010.5
20260905195459 80 12 0.0 3.0 0.00 0.36 0.10 76 1010.4
20260905194955 80 5 0.0 3.0 0.00 0.36 0.10 76 1010.5
20260905194453 81 67 1.0 3.0 0.00 0.36 0.10 74 1010.6
20260905193951 81 77 1.0 3.0 0.00 0.36 0.10 76 1010.7
20260905193451 81 291 1.0 3.0 0.00 0.36 0.10 77 1010.8
20260905193212 81 273 1.0 4.0 0.00 0.36 0.10 74 1010.8
20260905192449 80 104 1.0 4.0 0.00 0.36 0.10 77 1010.8
20260905191949 80 82 0.0 3.0 0.00 0.36 0.10 78 1010.8
20260905191448 80 321 0.0 4.0 0.00 0.36 0.10 76 1010.8
20260905190951 80 33 1.0 4.0 0.00 0.36 0.10 80 1010.9
20260905190945 80 80 1.0 3.0 0.00 0.36 0.10 81 1010.9
20260905190431 81 55 1.0 3.0 0.00 0.36 0.10 79 1011.0
20260905185447 80 0 0.0 3.0 0.00 0.36 0.10 78 1011.1
20260905184947 81 318 0.0 3.0 0.00 0.36 0.10 80 1011.1
20260905184439 80 62 0.0 3.0 0.00 0.36 0.10 81 1011.0
20260905183940 81 73 0.0 2.0 0.00 0.36 0.10 82 1011.1
20260905183438 80 58 0.0 1.0 0.00 0.36 0.10 88 1011.1
20260905183211 78 195 0.0 2.0 0.00 0.36 0.10 90 1011.1
20260905182438 78 195 0.0 2.0 0.01 0.36 0.10 88 1011.1
20260905181936 78 96 0.0 1.0 0.01 0.36 0.10 90 1011.0
20260905181437 78 96 0.0 1.0 0.02 0.36 0.10 90 1011.0
20260905181432 78 78 0.0 1.0 0.02 0.36 0.10 92 1011.0
20260905180659 77 111 0.0 0.0 0.03 0.36 0.10 93 1011.0
20260905175936 76 119 0.0 0.0 0.04 0.36 0.10 94 1011.1
20260905175440 76 111 0.0 0.0 0.05 0.36 0.10 94 1011.1
20260905174934 76 296 0.0 0.0 0.05 0.36 0.10 94 1011.1
20260905174435 76 212 0.0 1.0 0.06 0.36 0.10 95 1011.0
20260905173933 76 140 0.0 2.0 0.07 0.36 0.10 96 1011.2
20260905173701 76 140 0.0 2.0 0.08 0.36 0.10 96 1011.1
20260905172932 75 140 0.0 1.0 0.08 0.36 0.10 95 1011.1
20260905172431 75 140 0.0 3.0 0.07 0.35 0.09 96 1011.2
20260905171933 75 18 0.0 3.0 0.08 0.35 0.09 96 1011.4
20260905171700 75 186 0.0 1.0 0.07 0.34 0.08 95 1011.4
20260905170933 75 209 0.0 1.0 0.07 0.34 0.08 96 1011.5
20260905170427 75 209 0.0 1.0 0.06 0.33 0.07 94 1011.5
20260905165929 75 209 0.0 1.0 0.05 0.32 0.06 93 1011.7
20260905165429 76 209 0.0 1.0 0.04 0.31 0.06 91 1012.0
20260905165150 76 209 0.0 1.0 0.04 0.31 0.05 90 1012.1
20260905164648 76 209 0.0 1.0 0.03 0.30 0.04 90 1012.4
20260905163928 77 209 0.0 1.0 0.02 0.29 0.03 89 1012.7
20260905163427 77 71 0.0 0.0 0.01 0.28 0.03 89 1012.9
20260905162926 77 71 0.0 1.0 0.01 0.28 0.02 89 1013.0
20260905162858 77 71 0.0 1.0 0.01 0.28 0.02 88 1012.9
20260905161924 77 71 0.0 0.0 0.00 0.27 0.01 88 1012.9
20260905161422 77 71 0.0 0.0 0.00 0.27 0.01 88 1012.9
20260905161151 77 71 0.0 0.0 0.00 0.27 0.01 88 1013.0
20260905160416 77 71 0.0 0.0 0.00 0.27 0.01 87 1013.0
20260905155910 77 71 0.0 0.0 0.00 0.27 0.01 87 1013.1
20260905155404 77 71 0.0 1.0 0.00 0.27 0.01 87 1013.0
20260905154900 77 71 0.0 1.0 0.00 0.27 0.01 87 1013.0
20260905154400 77 73 0.0 1.0 0.00 0.27 0.01 86 1012.9
20260905154344 77 73 0.0 1.0 0.00 0.27 0.01 86 1012.8
20260905153401 77 73 0.0 2.0 0.00 0.27 0.01 86 1012.6
20260905152900 77 107 0.0 2.0 0.00 0.27 0.01 86 1012.6
20260905152359 77 75 0.0 1.0 0.00 0.27 0.01 86 1012.5
20260905151857 77 107 0.0 2.0 0.00 0.27 0.01 86 1012.5
20260905151623 77 59 0.0 2.0 0.00 0.27 0.01 86 1012.7
20260905151123 77 32 0.0 2.0 0.00 0.27 0.01 85 1012.8